STARLINK-2124 (47402 NORAD) Tracking and Keplerian Element Data
This shows tracking and keplerian element data for the satellite.
Feedback or suggestion? Click here.
Element | Value |
Catalog | 47402 |
Name | STARLINK-2124 |
Epoch Orbit | 177 |
Epoch Day | 99.91667824 |
Epoch Year | 2021 |
RAAN | 181.7385 |
Inclination | 53.0542 |
Eccentricity | 0.0003797 |
Argument of Perigee | 6.3485 |
Mean Anonmoly | 46.1912 |
Mean Motion | 15.627587 |
Decay Rate | -0.00086938 |
L1 | 1 47402U 21005BF 21099.91667824 -.00086938 00000-0 -95320-3 0 9997 |
L2 | 2 47402 53.0542 181.7385 0003797 6.3485 46.1912 15.62758700 1772 |
Live tracking and technical data element details for STARLINK-2124 (NORAD 47402). STARLINK-2124 can be tracked NOW for your location showing map with azimuth and elevation plus other details from your city location.
Track the satellite on the map from your city or location and see movement details for azimuth, elevation, latitude, longitude, range, height, and movement on the map or in text.
IsCatalogInMostPopularTable: catalog: 47402, numindb: 14
Update: records affected: 1
GetName: 47402 STARLINK-2124
Hit Count: updated at: Sat, 10 Apr 2021 19:36:57 GMT